[Date Prev][Date Next][Thread Prev][Thread Next] - [Date Index][Thread Index][Author Index]

2 Line ISS Keps 3-24



ISS
1 25544U 98067A   05082.84996632  .00017888  00000-0  14246-3 0   782
2 25544 051.6468 337.5209 0003565 225.6761 223.6654 15.71268710362264
----
Via the sarex mailing list at AMSAT.ORG courtesy of AMSAT-NA.
To unsubscribe, send "unsubscribe sarex" to Majordomo@amsat.org



AMSAT Top AMSAT Home